Skip Page Navigation
NASA JPL Caltech
NASA Logo - Jet Propulsion Laboratory + View the NASA Portal
+ Center for Near-Earth Object Studies
JPL Home Earth Solar System Stars & Galaxies Technology
JPL Solar System Dynamics
BODIES ORBITS EPHEMERIDES TOOLS PHYSICAL DATA DISCOVERY FAQ SITE MAP
IMPORTANT: The SSD Announcement email list is now available. Major changes are coming in the near future, including possible hostname and/or URL changes. To be notified of such changes, subscribe to this email list.

Please visit this page for more details.


JPL Small-Body Database Browser
Search: [ help ]  
447595 (2006 UL67)
Classification: Main-belt Asteroid          SPK-ID: 2447595
Ephemeris | Orbit Diagram | Orbital Elements | Mission Design | Physical Parameters | Discovery Circumstances ]

[ show orbit diagram ]
Orbital Elements at Epoch 2459000.5 (2020-May-31.0) TDB
Reference: JPL 12 (heliocentric ecliptic J2000)
 Element Value Uncertainty (1-sigma)   Units 
e .08596280843837785 7.1148e-08  
a 2.745151431364842 2.9068e-08 au
q 2.509170504736087 2.099e-07 au
i 6.047074866861182 6.0212e-06 deg
node 55.51287385495208 5.5258e-05 deg
peri 323.9212385497408 6.9715e-05 deg
M 5.316945642273078 4.0613e-05 deg
tp 2458975.963782870036
(2020-May-06.46378287)
0.00018727 TDB
period 1661.299317517711
4.55
2.6386e-05
7.224e-08
d
yr
n .2166978558312458 3.4418e-09 deg/d
Q 2.981132357993597 3.1566e-08 au
  Orbit Determination Parameters
   # obs. used (total)      176  
   data-arc span      8903 days (24.38 yr)  
   first obs. used      1995-04-09  
   last obs. used      2019-08-24  
   planetary ephem.      DE431  
   SB-pert. ephem.      SB431-N16  
   condition code      0  
   norm. resid. RMS      .5753  
   source      ORB  
   producer      Otto Matic  
   solution date      2019-Sep-24 07:49:23  

Additional Information
 Earth MOID = 1.51497 au 
 Jupiter MOID = 2.45001 au 
 T_jup = 3.335 
[ show covariance matrix ]

Ephemeris | Orbit Diagram | Orbital Elements | Mission Design | Physical Parameters | Discovery Circumstances ]

Physical Parameter Table
Parameter Symbol Value Units Sigma Reference Notes
absolute magnitude H 16.7   n/a MPO495222  

447595 (2006 UL67)          Discovered 2006-Oct-16 by CSS at Catalina
Reference: Last Updated: 2015-10-28

Alternate Designations
 2006 UL67 = 2008 CR169 
Ephemeris | Orbit Diagram | Orbital Elements | Mission Design | Physical Parameters | Discovery Circumstances ]
ABOUT SSD CREDITS/AWARDS PRIVACY/COPYRIGHT GLOSSARY LINKS
FirstGov 2020-Jun-04 21:03 UT
(server date/time)  
NASA Home Page
Site Manager:   Ryan S. Park
Webmaster  Alan B. Chamberlin